M6P (44109 NORAD) Tracking and Keplerian Element Data

This shows tracking and keplerian element data for the satellite.

Feedback or suggestion? Click here.




ElementValue
Catalog44109
NameM6P
Epoch Orbit294
Epoch Day111.77536154
Epoch Year2019
RAAN172.4949
Inclination97.5138
Eccentricity0.0059522
Argument of Perigee269.2015
Mean Anonmoly230.5789
Mean Motion15.29504122
Decay Rate7.87E-06
L11 44109U 19018AF 19111.77536154 .00000787 00000-0 28966-4 0 9995
L22 44109 97.5138 172.4949 0059522 269.2015 230.5789 15.29504122 2947

Live tracking and technical data element details for M6P (NORAD 44109). M6P can be tracked NOW for your location showing map with azimuth and elevation plus other details from your city location.

Track the satellite on the map from your city or location and see movement details for azimuth, elevation, latitude, longitude, range, height, and movement on the map or in text.







IsCatalogInMostPopularTable: catalog: 44109, numindb: 3
Update: records affected: 1



GetName: 44109 M6P

Hit Count: updated at: Tue, 23 Apr 2019 02:03:36 GMT